Home   Weather   Schwäbisch Hall   Past weeks

Flag for Germany Past Weather in Schwäbisch Hall, Baden-Württemberg, Germany — Yesterday and Last 2 Weeks

43 °F

Broken clouds.

Feels Like: 39 °F
Forecast: 35 / 54 °F
Wind: 6 mph from Southwest

Location: Niederstetten

Current Time: Oct 22, 2016 at 6:10:27 PM

Latest Report: Oct 22, 2016 at 5:20 PM

Visibility: 5 mi

Pressure: 29.92 "Hg

Humidity: 93%

Dew Point: 41 °F

Location of Schwäbisch HallLocation

Past Weather in Schwäbisch Hall — Graph


Schwäbisch Hall Temperature Yesterday

Maximum temperature yesterday: 43 °F (at 2:20 PM)
Minimum temperature yesterday: 37 °F (at 5:20 AM)
Average temperature yesterday: 40 °F

High & Low Weather Summary for the Past Weeks

High66 °F (Oct 16, 2:20 PM)100% (Oct 8, 5:20 AM)30.24 "Hg (Oct 8, 5:20 AM)
Low36 °F (Oct 9, 3:20 AM)46% (Oct 16, 3:20 PM)29.68 "Hg (Oct 14, 6:20 PM)
Average46 °F87%30.05 "Hg
* Reported Oct 7 4:20 PM — Oct 22 4:20 PM, Schwäbisch Hall, Weather by CustomWeather, © 2016

Note: Actual official high and low records may vary slightly from our data, if they occured in-between our weather recording intervals... More about our weather records


Schwäbisch Hall Weather History for the Previous 24 Hours

Scroll right to see more
Time TempWeatherWind HumidityBarometerVisibility
4:20 PM
Sat, Oct 22
43 °FBroken clouds.7 mph93%29.95 "Hg5 mi
3:20 PM43 °FFog.8 mph93%29.92 "Hg2 mi
2:20 PM43 °FFog.8 mph93%29.92 "Hg3 mi
1:20 PM41 °FFog.10 mph100%29.92 "Hg3 mi
12:20 PM41 °FFog.13 mph93%29.92 "Hg3 mi
11:20 AM41 °FLight rain. Mostly cloudy.14 mph93%29.92 "Hg5 mi
10:20 AM41 °FLight rain. Mostly cloudy.13 mph93%29.92 "Hg5 mi
9:20 AM41 °FLight rain. Broken clouds.13 mph93%29.92 "Hg4 mi
8:20 AM41 °FLight rain. Broken clouds.10 mph93%29.92 "Hg5 mi
7:20 AM39 °FLight rain. Partly cloudy.10 mph100%29.92 "Hg4 mi
6:20 AM39 °FRain. Overcast.10 mph100%29.92 "Hg4 mi
5:20 AM39 °FLight rain. Partly cloudy.9 mph93%29.92 "Hg6 mi
4:20 AM39 °FLight rain. Partly cloudy.7 mph93%29.92 "Hg5 mi
3:20 AM39 °FPartly cloudy.7 mph93%29.95 "HgN/A
2:20 AM41 °FPartly cloudy.8 mph93%29.95 "Hg5 mi
1:20 AM41 °FMostly cloudy.8 mph93%29.95 "Hg4 mi
12:20 AM41 °FMostly cloudy.6 mph93%29.95 "Hg4 mi
11:20 PM
Fri, Oct 21
39 °FOvercast.3 mph100%29.98 "Hg4 mi
10:20 PM41 °FOvercast.5 mph93%29.98 "Hg4 mi
9:20 PM41 °FLow clouds.6 mph93%29.98 "Hg5 mi
8:20 PM39 °FPassing clouds.6 mph100%29.98 "Hg5 mi
7:20 PM41 °FPartly cloudy.5 mph93%29.98 "Hg5 mi
6:20 PM41 °FPassing clouds.7 mph93%29.95 "Hg6 mi
Weather by CustomWeather, © 2016

See weather overviewHow to use our weather pages